Weather History for Batman, Turkey

Change the Weather History Date:

Thursday, July 26, 2012

  Actual Average (LTCC) Record (LTCC)
Temperature  
Mean Temperature 92 °F -  
Max Temperature 107 °F 101 °F 109 °F (2001)
Min Temperature 77 °F 72 °F 68 °F (2004)
Cooling Degree Days 27    
Growing Degree Days 42 (Base 50)    
Moisture  
Dew Point 47 °F    
Average Humidity 24    
Maximum Humidity 54    
Minimum Humidity 9    
Precipitation  
Precipitation 0.00 in - - ()
Sea Level Pressure  
Sea Level Pressure 29.70 in    
Wind  
Wind Speed 6 mph ()    
Max Wind Speed 10 mph    
Max Gust Speed -    
Visibility 6.2 miles    
Events      
Averages and records for this station are not official NWS values.
T = Trace of Precipitation, MM = Missing Value Source: Averaged Metar Reports

Daily Weather History Graph

Daily Weather History Graph

Search for Another Location

Airport:

Trip Planner

Search our weather history database for the weather conditions in past years. The results will help you decide how hot, cold, wet, or windy it might be!

Date:

Astronomy

Jul. 26, 2012 Rise Set
Actual Time 5:13 AM EEST 7:29 PM EEST
Civil Twilight 4:44 AM EEST 7:59 PM EEST
Nautical Twilight 4:07 AM EEST 8:35 PM EEST
Astronomical Twilight 3:27 AM EEST 9:15 PM EEST
Moon 12:53 PM EEST (7/26) 11:31 PM EEST (7/26)
Length of Visible Light 15h 15m
Length of Day
14h 16m
Waxing Crescent, 50% of the Moon is Illuminated
Jul 26
Waxing Crescent
Aug 2
Full
Aug 9
Last Quarter
Aug 17
New
Aug 24
First Quarter

Hourly Weather History & Observations

Time (EEST) Temp. Heat Index Dew Point Humidity Pressure Visibility Wind Dir Wind Speed Gust Speed Precip Events Conditions
12:20 AM 82.4 °F - 48.2 °F 30% 29.71 in - NE 6.9 mph - N/A   Clear
12:50 AM 82.4 °F - 48.2 °F 30% 29.71 in - Variable 6.9 mph - N/A   Clear
1:20 AM 78.8 °F - 50.0 °F 36% 29.71 in - North 6.9 mph - N/A   Clear
1:50 AM 77.0 °F - 50.0 °F 39% 29.71 in - North 6.9 mph - N/A   Clear
2:20 AM 77.0 °F - 51.8 °F 41% 29.74 in - NNE 9.2 mph - N/A   Clear
3:20 AM 77.0 °F - 50.0 °F 39% 29.74 in - NNE 5.8 mph - N/A   Clear
3:50 AM 78.8 °F - 48.2 °F 34% 29.74 in - NNE 6.9 mph - N/A   Clear
4:20 AM 78.8 °F - 44.6 °F 30% 29.74 in - NNE 5.8 mph - N/A   Clear
4:50 AM 77.0 °F - 46.4 °F 34% 29.74 in - NE 5.8 mph - N/A   Clear
5:20 AM 78.8 °F - 46.4 °F 32% 29.74 in - NE 8.1 mph - N/A   Clear
5:50 AM 78.8 °F - 46.4 °F 32% 29.77 in - NE 6.9 mph - N/A   Clear
6:20 AM 78.8 °F - 48.2 °F 34% 29.77 in - NNE 6.9 mph - N/A   Clear
6:50 AM 82.4 °F - 50.0 °F 32% 29.77 in - NNE 5.8 mph - N/A   Clear
7:20 AM 86.0 °F - 50.0 °F 29% 29.77 in - NNE 5.8 mph - N/A   Clear
7:50 AM 91.4 °F - 50.0 °F 24% 29.77 in - North 5.8 mph - N/A   Clear
8:20 AM 93.2 °F - 48.2 °F 21% 29.77 in - NNW 5.8 mph - N/A   Clear
8:50 AM 96.8 °F - 44.6 °F 17% 29.77 in - North 5.8 mph - N/A   Clear
9:20 AM 98.6 °F - 42.8 °F 15% 29.77 in - ENE 5.8 mph - N/A   Clear
9:50 AM 100.4 °F - 46.4 °F 16% 29.77 in - NNE 8.1 mph - N/A   Clear
10:20 AM 102.2 °F - 39.2 °F 11% 29.74 in - ENE 9.2 mph - N/A   Clear
10:50 AM 104.0 °F - 44.6 °F 13% 29.74 in - Variable 4.6 mph - N/A   Clear
11:20 AM 104.0 °F - 39.2 °F 11% 29.74 in - Variable 5.8 mph - N/A   Clear
11:50 AM 105.8 °F - 39.2 °F 10% 29.74 in - ESE 2.3 mph - N/A   Clear
12:20 PM 104.0 °F - 42.8 °F 12% 29.71 in - WNW 4.6 mph - N/A   Clear
12:50 PM 105.8 °F - 42.8 °F 12% 29.71 in - NW 8.1 mph - N/A   Clear
1:20 PM 105.8 °F - 41.0 °F 11% 29.71 in - WNW 6.9 mph - N/A   Clear
1:50 PM 105.8 °F - 39.2 °F 10% 29.71 in 6.2 mi West 6.9 mph - N/A   Partly Cloudy
2:20 PM 107.6 °F - 37.4 °F 9% 29.68 in 6.2 mi SSW 6.9 mph - N/A   Partly Cloudy
2:50 PM 107.6 °F - 42.8 °F 11% 29.68 in 6.2 mi SW 6.9 mph - N/A   Partly Cloudy
3:20 PM 105.8 °F - 39.2 °F 10% 29.68 in 6.2 mi SSW 6.9 mph - N/A   Partly Cloudy
3:50 PM 107.6 °F - 39.2 °F 10% 29.65 in 6.2 mi West 6.9 mph - N/A   Partly Cloudy
4:20 PM 107.6 °F - 39.2 °F 10% 29.65 in 6.2 mi NW 4.6 mph - N/A   Partly Cloudy
4:50 PM 107.6 °F - 37.4 °F 9% 29.65 in 6.2 mi NNW 4.6 mph - N/A   Partly Cloudy
5:20 PM 105.8 °F - 39.2 °F 10% 29.65 in - WNW 3.5 mph - N/A   Clear
5:50 PM 107.6 °F - 37.4 °F 9% 29.65 in - Variable 2.3 mph - N/A   Clear
6:20 PM 105.8 °F - 35.6 °F 9% 29.62 in - ESE 3.5 mph - N/A   Clear
6:50 PM 96.8 °F 97.1 °F 60.8 °F 30% 29.65 in - NW 3.5 mph - N/A   Clear
7:20 PM 95.0 °F 93.7 °F 57.2 °F 28% 29.65 in - North 4.6 mph - N/A   Clear
7:50 PM 91.4 °F 89.4 °F 55.4 °F 29% 29.62 in - Calm Calm - N/A   Clear
8:20 PM 89.6 °F - 44.6 °F 21% 29.65 in - Calm Calm - N/A   Clear
8:50 PM 86.0 °F 85.4 °F 59.0 °F 40% 29.65 in - North 5.8 mph - N/A   Clear
9:20 PM 86.0 °F - 51.8 °F 31% 29.65 in - NE 6.9 mph - N/A   Clear
9:50 PM 80.6 °F 80.8 °F 57.2 °F 45% 29.65 in - NNE 8.1 mph - N/A   Clear
10:20 PM 82.4 °F 81.7 °F 55.4 °F 39% 29.65 in - NNE 10.4 mph - N/A   Clear
10:50 PM 80.6 °F 80.8 °F 57.2 °F 45% 29.65 in - Variable 1.2 mph - N/A   Clear
11:20 PM 78.8 °F - 51.8 °F 39% 29.65 in - ENE 4.6 mph - N/A   Clear
11:50 PM 77.0 °F - 59.0 °F 54% 29.65 in - North 4.6 mph - N/A   Clear